Year,Month,Day,Hour,Minute,Value (Times are PST for temperature in C)
2015,08,11,00,00,16.30
2015,08,11,00,01,16.30
2015,08,11,00,02,16.30
2015,08,11,00,03,16.30
2015,08,11,00,04,16.30
2015,08,11,00,05,16.20
2015,08,11,00,06,16.20
2015,08,11,00,07,16.20
2015,08,11,00,08,16.20
2015,08,11,00,09,16.20
2015,08,11,00,10,16.20
2015,08,11,00,11,16.20
2015,08,11,00,12,16.20
2015,08,11,00,13,16.10
2015,08,11,00,14,16.10
2015,08,11,00,15,16.10
2015,08,11,00,16,16.10
2015,08,11,00,17,16.10
2015,08,11,00,18,16.10
2015,08,11,00,19,16.00
2015,08,11,00,20,16.00
2015,08,11,00,21,16.00
2015,08,11,00,22,15.90
2015,08,11,00,23,15.90
2015,08,11,00,24,15.90
2015,08,11,00,25,15.90
2015,08,11,00,26,15.90
2015,08,11,00,27,15.80
2015,08,11,00,28,15.80
2015,08,11,00,29,15.80
2015,08,11,00,30,15.80
2015,08,11,00,31,15.80
2015,08,11,00,32,15.80
2015,08,11,00,33,15.80
2015,08,11,00,34,15.80
2015,08,11,00,35,15.70
2015,08,11,00,36,15.70
2015,08,11,00,37,15.70
2015,08,11,00,38,15.70
2015,08,11,00,39,15.70
2015,08,11,00,40,15.70
2015,08,11,00,41,15.70
2015,08,11,00,42,15.60
2015,08,11,00,43,15.60
2015,08,11,00,44,15.60
2015,08,11,00,45,15.60
2015,08,11,00,46,15.60
2015,08,11,00,47,15.60
2015,08,11,00,48,15.60
2015,08,11,00,49,15.50
2015,08,11,00,50,15.50
2015,08,11,00,51,15.50
2015,08,11,00,52,15.50
2015,08,11,00,53,15.50
2015,08,11,00,54,15.50
2015,08,11,00,55,15.40
2015,08,11,00,56,15.40
2015,08,11,00,57,15.40
2015,08,11,00,58,15.40
2015,08,11,00,59,15.40
2015,08,11,01,00,15.40
2015,08,11,01,01,15.40
2015,08,11,01,02,15.30
2015,08,11,01,03,15.30
2015,08,11,01,04,15.30
2015,08,11,01,05,15.30
2015,08,11,01,06,15.30
2015,08,11,01,07,15.30
2015,08,11,01,08,15.30
2015,08,11,01,09,15.20
2015,08,11,01,10,15.20
2015,08,11,01,11,15.20
2015,08,11,01,12,15.20
2015,08,11,01,13,15.20
2015,08,11,01,14,15.20
2015,08,11,01,15,15.20
2015,08,11,01,16,15.20
2015,08,11,01,17,15.20
2015,08,11,01,18,15.20
2015,08,11,01,19,15.20
2015,08,11,01,20,15.20
2015,08,11,01,21,15.30
2015,08,11,01,22,15.30
2015,08,11,01,23,15.30
2015,08,11,01,24,15.20
2015,08,11,01,25,15.20
2015,08,11,01,26,15.20
2015,08,11,01,27,15.20
2015,08,11,01,28,15.20
2015,08,11,01,29,15.20
2015,08,11,01,30,15.20
2015,08,11,01,31,15.20
2015,08,11,01,32,15.20
2015,08,11,01,33,15.10
2015,08,11,01,34,15.10
2015,08,11,01,35,15.20
2015,08,11,01,36,15.20
2015,08,11,01,37,15.20
2015,08,11,01,38,15.20
2015,08,11,01,39,15.20
2015,08,11,01,40,15.20
2015,08,11,01,41,15.20
2015,08,11,01,42,15.20
2015,08,11,01,43,15.20
2015,08,11,01,44,15.20
2015,08,11,01,45,15.20
2015,08,11,01,46,15.20
2015,08,11,01,47,15.20
2015,08,11,01,48,15.20
2015,08,11,01,49,15.20
2015,08,11,01,50,15.20
2015,08,11,01,51,15.20
2015,08,11,01,52,15.20
2015,08,11,01,53,15.20
2015,08,11,01,54,15.20
2015,08,11,01,55,15.20
2015,08,11,01,56,15.20
2015,08,11,01,57,15.20
2015,08,11,01,58,15.20
2015,08,11,01,59,15.20
2015,08,11,02,00,15.10
2015,08,11,02,01,15.10
2015,08,11,02,02,15.10
2015,08,11,02,03,15.10
2015,08,11,02,04,15.10
2015,08,11,02,05,15.10
2015,08,11,02,06,15.10
2015,08,11,02,07,15.10
2015,08,11,02,08,15.10
2015,08,11,02,09,15.10
2015,08,11,02,10,15.10
2015,08,11,02,11,15.10
2015,08,11,02,12,15.10
2015,08,11,02,13,15.10
2015,08,11,02,14,15.00
2015,08,11,02,15,15.00
2015,08,11,02,16,15.00
2015,08,11,02,17,15.00
2015,08,11,02,18,15.00
2015,08,11,02,19,15.00
2015,08,11,02,20,14.90
2015,08,11,02,21,14.90
2015,08,11,02,22,14.90
2015,08,11,02,23,14.90
2015,08,11,02,24,14.90
2015,08,11,02,25,14.90
2015,08,11,02,26,14.90
2015,08,11,02,27,14.90
2015,08,11,02,28,14.90
2015,08,11,02,29,14.80
2015,08,11,02,30,14.80
2015,08,11,02,31,14.80
2015,08,11,02,32,14.80
2015,08,11,02,33,14.80
2015,08,11,02,34,14.80
2015,08,11,02,35,14.80
2015,08,11,02,36,14.80
2015,08,11,02,37,14.80
2015,08,11,02,38,14.80
2015,08,11,02,39,14.80
2015,08,11,02,40,14.80
2015,08,11,02,41,14.80
2015,08,11,02,42,14.80
2015,08,11,02,43,14.80
2015,08,11,02,44,14.80
2015,08,11,02,45,14.80
2015,08,11,02,46,14.80
2015,08,11,02,47,14.80
2015,08,11,02,48,14.80
2015,08,11,02,49,14.80
2015,08,11,02,50,14.80
2015,08,11,02,51,14.80
2015,08,11,02,52,14.80
2015,08,11,02,53,14.80
2015,08,11,02,54,14.80
2015,08,11,02,55,14.70
2015,08,11,02,56,14.70
2015,08,11,02,57,14.80
2015,08,11,02,58,14.80
2015,08,11,02,59,14.70
2015,08,11,03,00,14.70
2015,08,11,03,01,14.70
2015,08,11,03,02,14.70
2015,08,11,03,03,14.70
2015,08,11,03,04,14.70
2015,08,11,03,05,14.70
2015,08,11,03,06,14.70
2015,08,11,03,07,14.70
2015,08,11,03,08,14.70
2015,08,11,03,09,14.70
2015,08,11,03,10,14.70
2015,08,11,03,11,14.70
2015,08,11,03,12,14.70
2015,08,11,03,13,14.70
2015,08,11,03,14,14.70
2015,08,11,03,15,14.70
2015,08,11,03,16,14.70
2015,08,11,03,17,14.70
2015,08,11,03,18,14.70
2015,08,11,03,19,14.70
2015,08,11,03,20,14.70
2015,08,11,03,21,14.70
2015,08,11,03,22,14.70
2015,08,11,03,23,14.70
2015,08,11,03,24,14.70
2015,08,11,03,25,14.70
2015,08,11,03,26,14.70
2015,08,11,03,27,14.70
2015,08,11,03,28,14.80
2015,08,11,03,29,14.80
2015,08,11,03,30,14.80
2015,08,11,03,31,14.80
2015,08,11,03,32,14.80
2015,08,11,03,33,14.80
2015,08,11,03,34,14.80
2015,08,11,03,35,14.80
2015,08,11,03,36,14.80
2015,08,11,03,37,14.80
2015,08,11,03,38,14.80
2015,08,11,03,39,14.70
2015,08,11,03,40,14.70
2015,08,11,03,41,14.70
2015,08,11,03,42,14.70
2015,08,11,03,43,14.70
2015,08,11,03,44,14.70
2015,08,11,03,45,14.70
2015,08,11,03,46,14.70
2015,08,11,03,47,14.70
2015,08,11,03,48,14.70
2015,08,11,03,49,14.70
2015,08,11,03,50,14.70
2015,08,11,03,51,14.70
2015,08,11,03,52,14.60
2015,08,11,03,53,14.60
2015,08,11,03,54,14.60
2015,08,11,03,55,14.60
2015,08,11,03,56,14.60
2015,08,11,03,57,14.60
2015,08,11,03,58,14.60
2015,08,11,03,59,14.60
2015,08,11,04,00,14.60
2015,08,11,04,01,14.50
2015,08,11,04,02,14.50
2015,08,11,04,03,14.50
2015,08,11,04,04,14.50
2015,08,11,04,05,14.50
2015,08,11,04,06,14.50
2015,08,11,04,07,14.50
2015,08,11,04,08,14.50
2015,08,11,04,09,14.50
2015,08,11,04,10,14.40
2015,08,11,04,11,14.40
2015,08,11,04,12,14.40
2015,08,11,04,13,14.40
2015,08,11,04,14,14.40
2015,08,11,04,15,14.40
2015,08,11,04,16,14.40
2015,08,11,04,17,14.40
2015,08,11,04,18,14.40
2015,08,11,04,19,14.30
2015,08,11,04,20,14.30
2015,08,11,04,21,14.30
2015,08,11,04,22,14.30
2015,08,11,04,23,14.30
2015,08,11,04,24,14.30
2015,08,11,04,25,14.30
2015,08,11,04,26,14.30
2015,08,11,04,27,14.30
2015,08,11,04,28,14.30
2015,08,11,04,29,14.40
2015,08,11,04,30,14.40
2015,08,11,04,31,14.40
2015,08,11,04,32,14.40
2015,08,11,04,33,14.40
2015,08,11,04,34,14.50
2015,08,11,04,35,14.50
2015,08,11,04,36,14.50
2015,08,11,04,37,14.50
2015,08,11,04,38,14.50
2015,08,11,04,39,14.50
2015,08,11,04,40,14.60
2015,08,11,04,41,14.60
2015,08,11,04,42,14.50
2015,08,11,04,43,14.50
2015,08,11,04,44,14.50
2015,08,11,04,45,14.60
2015,08,11,04,46,14.60
2015,08,11,04,47,14.60
2015,08,11,04,48,14.60
2015,08,11,04,49,14.60
2015,08,11,04,50,14.60
2015,08,11,04,51,14.60
2015,08,11,04,52,14.60
2015,08,11,04,53,14.60
2015,08,11,04,54,14.60
2015,08,11,04,55,14.60
2015,08,11,04,56,14.60
2015,08,11,04,57,14.60
2015,08,11,04,58,14.60
2015,08,11,04,59,14.60
2015,08,11,05,00,14.60
2015,08,11,05,01,14.70
2015,08,11,05,02,14.70
2015,08,11,05,03,14.60
2015,08,11,05,04,14.60
2015,08,11,05,05,14.60
2015,08,11,05,06,14.60
2015,08,11,05,07,14.60
2015,08,11,05,08,14.60
2015,08,11,05,09,14.60
2015,08,11,05,10,14.60
2015,08,11,05,11,14.60
2015,08,11,05,12,14.60
2015,08,11,05,13,14.60
2015,08,11,05,14,14.60
2015,08,11,05,15,14.60
2015,08,11,05,16,14.60
2015,08,11,05,17,14.60
2015,08,11,05,18,14.60
2015,08,11,05,19,14.60
2015,08,11,05,20,14.60
2015,08,11,05,21,14.60
2015,08,11,05,22,14.60
2015,08,11,05,23,14.60
2015,08,11,05,24,14.60
2015,08,11,05,25,14.60
2015,08,11,05,26,14.60
2015,08,11,05,27,14.60
2015,08,11,05,28,14.60
2015,08,11,05,29,14.60
2015,08,11,05,30,14.60
2015,08,11,05,31,14.60
2015,08,11,05,32,14.60
2015,08,11,05,33,14.60
2015,08,11,05,34,14.60
2015,08,11,05,35,14.60
2015,08,11,05,36,14.60
2015,08,11,05,37,14.60
2015,08,11,05,38,14.60
2015,08,11,05,39,14.60
2015,08,11,05,40,14.50
2015,08,11,05,41,14.50
2015,08,11,05,42,14.50
2015,08,11,05,43,14.50
2015,08,11,05,44,14.50
2015,08,11,05,45,14.50
2015,08,11,05,46,14.50
2015,08,11,05,47,14.50
2015,08,11,05,48,14.50
2015,08,11,05,49,14.50
2015,08,11,05,50,14.50
2015,08,11,05,51,14.50
2015,08,11,05,52,14.50
2015,08,11,05,53,14.40
2015,08,11,05,54,14.40
2015,08,11,05,55,14.40
2015,08,11,05,56,14.40
2015,08,11,05,57,14.40
2015,08,11,05,58,14.40
2015,08,11,05,59,14.30
2015,08,11,06,00,14.30
2015,08,11,06,01,14.30
2015,08,11,06,02,14.30
2015,08,11,06,03,14.30
2015,08,11,06,04,14.30
2015,08,11,06,05,14.30
2015,08,11,06,06,14.20
2015,08,11,06,07,14.20
2015,08,11,06,08,14.20
2015,08,11,06,09,14.20
2015,08,11,06,10,14.20
2015,08,11,06,11,14.20
2015,08,11,06,12,14.20
2015,08,11,06,13,14.20
2015,08,11,06,14,14.20
2015,08,11,06,15,14.20
2015,08,11,06,16,14.10
2015,08,11,06,17,14.10
2015,08,11,06,18,14.10
2015,08,11,06,19,14.10
2015,08,11,06,20,14.10
2015,08,11,06,21,14.10
2015,08,11,06,22,14.10
2015,08,11,06,23,14.10
2015,08,11,06,24,14.10
2015,08,11,06,25,14.10
2015,08,11,06,26,14.10
2015,08,11,06,27,14.10
2015,08,11,06,28,14.10
2015,08,11,06,29,14.10
2015,08,11,06,30,14.10
2015,08,11,06,31,14.10
2015,08,11,06,32,14.20
2015,08,11,06,33,14.20
2015,08,11,06,34,14.20
2015,08,11,06,35,14.20
2015,08,11,06,36,14.30
2015,08,11,06,37,14.30
2015,08,11,06,38,14.30
2015,08,11,06,39,14.30
2015,08,11,06,40,14.40
2015,08,11,06,41,14.40
2015,08,11,06,42,14.40
2015,08,11,06,43,14.40
2015,08,11,06,44,14.40
2015,08,11,06,45,14.40
2015,08,11,06,46,14.40
2015,08,11,06,47,14.40
2015,08,11,06,48,14.50
2015,08,11,06,49,14.50
2015,08,11,06,50,14.50
2015,08,11,06,51,14.50
2015,08,11,06,52,14.40
2015,08,11,06,53,14.40
2015,08,11,06,54,14.40
2015,08,11,06,55,14.40
2015,08,11,06,56,14.40
2015,08,11,06,57,14.40
2015,08,11,06,58,14.40
2015,08,11,06,59,14.50
2015,08,11,07,00,14.50
2015,08,11,07,01,14.50
2015,08,11,07,02,14.50
2015,08,11,07,03,14.60
2015,08,11,07,04,14.60
2015,08,11,07,05,14.60
2015,08,11,07,06,14.60
2015,08,11,07,07,14.60
2015,08,11,07,08,14.60
2015,08,11,07,09,14.60
2015,08,11,07,10,14.60
2015,08,11,07,11,14.60
2015,08,11,07,12,14.70
2015,08,11,07,13,14.70
2015,08,11,07,14,14.70
2015,08,11,07,15,14.70
2015,08,11,07,16,14.70
2015,08,11,07,17,14.70
2015,08,11,07,18,14.70
2015,08,11,07,19,14.60
2015,08,11,07,20,14.60
2015,08,11,07,21,14.60
2015,08,11,07,22,14.60
2015,08,11,07,23,14.70
2015,08,11,07,24,14.60
2015,08,11,07,25,14.60
2015,08,11,07,26,14.60
2015,08,11,07,27,14.60
2015,08,11,07,28,14.60
2015,08,11,07,29,14.60
2015,08,11,07,30,14.60
2015,08,11,07,31,14.60
2015,08,11,07,32,14.60
2015,08,11,07,33,14.60
2015,08,11,07,34,14.60
2015,08,11,07,35,14.60
2015,08,11,07,36,14.70
2015,08,11,07,37,14.60
2015,08,11,07,38,14.60
2015,08,11,07,39,14.60
2015,08,11,07,40,14.60
2015,08,11,07,41,14.70
2015,08,11,07,42,14.60
2015,08,11,07,43,14.70
2015,08,11,07,44,14.70
2015,08,11,07,45,14.70
2015,08,11,07,46,14.70
2015,08,11,07,47,14.70
2015,08,11,07,48,14.70
2015,08,11,07,49,14.70
2015,08,11,07,50,14.70
2015,08,11,07,51,14.70
2015,08,11,07,52,14.70
2015,08,11,07,53,14.70
2015,08,11,07,54,14.70
2015,08,11,07,55,14.70
2015,08,11,07,56,14.70
2015,08,11,07,57,14.70
2015,08,11,07,58,14.70
2015,08,11,07,59,14.70
2015,08,11,08,00,14.70
2015,08,11,08,01,14.70
2015,08,11,08,02,14.70
2015,08,11,08,03,14.70
2015,08,11,08,04,14.70
2015,08,11,08,05,14.70
2015,08,11,08,06,14.70
2015,08,11,08,07,14.70
2015,08,11,08,08,14.70
2015,08,11,08,09,14.70
2015,08,11,08,10,14.70
2015,08,11,08,11,14.70
2015,08,11,08,12,14.70
2015,08,11,08,13,14.70
2015,08,11,08,14,14.70
2015,08,11,08,15,14.70
2015,08,11,08,16,14.70
2015,08,11,08,17,14.70
2015,08,11,08,18,14.70
2015,08,11,08,19,14.70
2015,08,11,08,20,14.70
2015,08,11,08,21,14.70
2015,08,11,08,22,14.70
2015,08,11,08,23,14.70
2015,08,11,08,24,14.70
2015,08,11,08,25,14.70
2015,08,11,08,26,14.70
2015,08,11,08,27,14.70
2015,08,11,08,28,14.70
2015,08,11,08,29,14.70
2015,08,11,08,30,14.70
2015,08,11,08,31,14.70
2015,08,11,08,32,14.70
2015,08,11,08,33,14.70
2015,08,11,08,34,14.70
2015,08,11,08,35,14.70
2015,08,11,08,36,14.70
2015,08,11,08,37,14.70
2015,08,11,08,38,14.70
2015,08,11,08,39,14.70
2015,08,11,08,40,14.70
2015,08,11,08,41,14.70
2015,08,11,08,42,14.70
2015,08,11,08,43,14.70
2015,08,11,08,44,14.70
2015,08,11,08,45,14.70
2015,08,11,08,46,14.70
2015,08,11,08,47,14.70
2015,08,11,08,48,14.70
2015,08,11,08,49,14.70
2015,08,11,08,50,14.70
2015,08,11,08,51,14.70
2015,08,11,08,52,14.70
2015,08,11,08,53,14.70
2015,08,11,08,54,14.70
2015,08,11,08,55,14.70
2015,08,11,08,56,14.60
2015,08,11,08,57,14.60
2015,08,11,08,58,14.60
2015,08,11,08,59,14.60
2015,08,11,09,00,14.60
2015,08,11,09,01,14.60
2015,08,11,09,02,14.60
2015,08,11,09,03,14.60
2015,08,11,09,04,14.60
2015,08,11,09,05,14.60
2015,08,11,09,06,14.60
2015,08,11,09,07,14.60
2015,08,11,09,08,14.60
2015,08,11,09,09,14.70
2015,08,11,09,10,14.70
2015,08,11,09,11,14.70
2015,08,11,09,12,14.70
2015,08,11,09,13,14.70
2015,08,11,09,14,14.70
2015,08,11,09,15,14.70
2015,08,11,09,16,14.80
2015,08,11,09,17,14.80
2015,08,11,09,18,14.80
2015,08,11,09,19,14.80
2015,08,11,09,20,14.90
2015,08,11,09,21,14.90
2015,08,11,09,22,14.90
2015,08,11,09,23,14.90
2015,08,11,09,24,14.90
2015,08,11,09,25,14.90
2015,08,11,09,26,14.90
2015,08,11,09,27,14.90
2015,08,11,09,28,15.00
2015,08,11,09,29,15.00
2015,08,11,09,30,15.00
2015,08,11,09,31,15.00
2015,08,11,09,32,15.00
2015,08,11,09,33,15.10
2015,08,11,09,34,15.10
2015,08,11,09,35,15.10
2015,08,11,09,36,15.10
2015,08,11,09,37,15.10
2015,08,11,09,38,15.10
2015,08,11,09,39,15.10
2015,08,11,09,40,15.10
2015,08,11,09,41,15.10
2015,08,11,09,42,15.10
2015,08,11,09,43,15.20
2015,08,11,09,44,15.20
2015,08,11,09,45,15.20
2015,08,11,09,46,15.30
2015,08,11,09,47,15.30
2015,08,11,09,48,15.40
2015,08,11,09,49,15.40
2015,08,11,09,50,15.50
2015,08,11,09,51,15.50
2015,08,11,09,52,15.60
2015,08,11,09,53,15.60
2015,08,11,09,54,15.60
2015,08,11,09,55,15.70
2015,08,11,09,56,15.70
2015,08,11,09,57,15.80
2015,08,11,09,58,15.90
2015,08,11,09,59,15.90
2015,08,11,10,00,16.00
2015,08,11,10,01,16.10
2015,08,11,10,02,16.10
2015,08,11,10,03,16.20
2015,08,11,10,04,16.20
2015,08,11,10,05,16.30
2015,08,11,10,06,16.30
2015,08,11,10,07,16.30
2015,08,11,10,08,16.40
2015,08,11,10,09,16.40
2015,08,11,10,10,16.50
2015,08,11,10,11,16.50
2015,08,11,10,12,16.60
2015,08,11,10,13,16.60
2015,08,11,10,14,16.60
2015,08,11,10,15,16.70
2015,08,11,10,16,16.70
2015,08,11,10,17,16.70
2015,08,11,10,18,16.80
2015,08,11,10,19,16.80
2015,08,11,10,20,16.80
2015,08,11,10,21,16.90
2015,08,11,10,22,16.90
2015,08,11,10,23,16.90
2015,08,11,10,24,17.00
2015,08,11,10,25,17.10
2015,08,11,10,26,17.10
2015,08,11,10,27,17.10
2015,08,11,10,28,17.20
2015,08,11,10,29,17.30
2015,08,11,10,30,17.30
2015,08,11,10,31,17.40
2015,08,11,10,32,17.50
2015,08,11,10,33,17.50
2015,08,11,10,34,17.60
2015,08,11,10,35,17.70
2015,08,11,10,36,17.70
2015,08,11,10,37,17.80
2015,08,11,10,38,17.80
2015,08,11,10,39,17.90
2015,08,11,10,40,18.00
2015,08,11,10,41,18.00
2015,08,11,10,42,18.10
2015,08,11,10,43,18.20
2015,08,11,10,44,18.20
2015,08,11,10,45,18.30
2015,08,11,10,46,18.40
2015,08,11,10,47,18.50
2015,08,11,10,48,18.60
2015,08,11,10,49,18.70
2015,08,11,10,50,18.80
2015,08,11,10,51,18.80
2015,08,11,10,52,19.00
2015,08,11,10,53,19.10
2015,08,11,10,54,19.20
2015,08,11,10,55,19.20
2015,08,11,10,56,19.30
2015,08,11,10,57,19.40
2015,08,11,10,58,19.40
2015,08,11,10,59,19.50
2015,08,11,11,00,19.60
2015,08,11,11,01,19.60
2015,08,11,11,02,19.70
2015,08,11,11,03,19.70
2015,08,11,11,04,19.80
2015,08,11,11,05,19.80
2015,08,11,11,06,19.90
2015,08,11,11,07,19.90
2015,08,11,11,08,20.00
2015,08,11,11,09,20.10
2015,08,11,11,10,20.10
2015,08,11,11,11,20.20
2015,08,11,11,12,20.20
2015,08,11,11,13,20.30
2015,08,11,11,14,20.40
2015,08,11,11,15,20.40
2015,08,11,11,16,20.50
2015,08,11,11,17,20.60
2015,08,11,11,18,20.70
2015,08,11,11,19,20.80
2015,08,11,11,20,20.90
2015,08,11,11,21,21.00
2015,08,11,11,22,21.10
2015,08,11,11,23,21.20
2015,08,11,11,24,21.30
2015,08,11,11,25,21.30
2015,08,11,11,26,21.40
2015,08,11,11,27,21.40
2015,08,11,11,28,21.40
2015,08,11,11,29,21.40
2015,08,11,11,30,21.40
2015,08,11,11,31,21.40
2015,08,11,11,32,21.40
2015,08,11,11,33,21.40
2015,08,11,11,34,21.40
2015,08,11,11,35,21.40
2015,08,11,11,36,21.50
2015,08,11,11,37,21.50
2015,08,11,11,38,21.50
2015,08,11,11,39,21.50
2015,08,11,11,40,21.60
2015,08,11,11,41,21.60
2015,08,11,11,42,21.60
2015,08,11,11,43,21.60
2015,08,11,11,44,21.60
2015,08,11,11,45,21.70
2015,08,11,11,46,21.70
2015,08,11,11,47,21.80
2015,08,11,11,48,21.80
2015,08,11,11,49,21.90
2015,08,11,11,50,22.00
2015,08,11,11,51,22.10
2015,08,11,11,52,22.20
2015,08,11,11,53,22.30
2015,08,11,11,54,22.40
2015,08,11,11,55,22.50
2015,08,11,11,56,22.60
2015,08,11,11,57,22.60
2015,08,11,11,58,22.60
2015,08,11,11,59,22.70
2015,08,11,12,00,22.70
2015,08,11,12,01,22.80
2015,08,11,12,02,22.90
2015,08,11,12,03,23.00
2015,08,11,12,04,23.10
2015,08,11,12,05,23.20
2015,08,11,12,06,23.30
2015,08,11,12,07,23.40
2015,08,11,12,08,23.40
2015,08,11,12,09,23.50
2015,08,11,12,10,23.50
2015,08,11,12,11,23.60
2015,08,11,12,12,23.70
2015,08,11,12,13,23.80
2015,08,11,12,14,23.80
2015,08,11,12,15,23.90
2015,08,11,12,16,24.00
2015,08,11,12,17,24.10
2015,08,11,12,18,24.20
2015,08,11,12,19,24.30
2015,08,11,12,20,24.30
2015,08,11,12,21,24.40
2015,08,11,12,22,24.50
2015,08,11,12,23,24.60
2015,08,11,12,24,24.60
2015,08,11,12,25,24.70
2015,08,11,12,26,24.70
2015,08,11,12,27,24.80
2015,08,11,12,28,24.80
2015,08,11,12,29,24.90
2015,08,11,12,30,25.00
2015,08,11,12,31,25.00
2015,08,11,12,32,25.10
2015,08,11,12,33,25.20
2015,08,11,12,34,25.20
2015,08,11,12,35,25.30
2015,08,11,12,36,25.30
2015,08,11,12,37,25.40
2015,08,11,12,38,25.40
2015,08,11,12,39,25.40
2015,08,11,12,40,25.40
2015,08,11,12,41,25.50
2015,08,11,12,42,25.50
2015,08,11,12,43,25.50
2015,08,11,12,44,25.50
2015,08,11,12,45,25.50
2015,08,11,12,46,25.50
2015,08,11,12,47,25.50
2015,08,11,12,48,25.50
2015,08,11,12,49,25.50
2015,08,11,12,50,25.50
2015,08,11,12,51,25.60
2015,08,11,12,52,25.60
2015,08,11,12,53,25.60
2015,08,11,12,54,25.60
2015,08,11,12,55,25.70
2015,08,11,12,56,25.70
2015,08,11,12,57,25.70
2015,08,11,12,58,25.80
2015,08,11,12,59,25.90
2015,08,11,13,00,25.90
2015,08,11,13,01,25.90
2015,08,11,13,02,26.00
2015,08,11,13,03,26.00
2015,08,11,13,04,26.00
2015,08,11,13,05,26.10
2015,08,11,13,06,26.00
2015,08,11,13,07,26.00
2015,08,11,13,08,26.00
2015,08,11,13,09,25.90
2015,08,11,13,10,25.80
2015,08,11,13,11,25.80
2015,08,11,13,12,25.80
2015,08,11,13,13,25.80
2015,08,11,13,14,25.80
2015,08,11,13,15,25.80
2015,08,11,13,16,25.80
2015,08,11,13,17,25.90
2015,08,11,13,18,25.90
2015,08,11,13,19,25.90
2015,08,11,13,20,26.00
2015,08,11,13,21,26.00
2015,08,11,13,22,26.10
2015,08,11,13,23,26.10
2015,08,11,13,24,26.20
2015,08,11,13,25,26.20
2015,08,11,13,26,26.30
2015,08,11,13,27,26.30
2015,08,11,13,28,26.30
2015,08,11,13,29,26.40
2015,08,11,13,30,26.50
2015,08,11,13,31,26.50
2015,08,11,13,32,26.50
2015,08,11,13,33,26.50
2015,08,11,13,34,26.50
2015,08,11,13,35,26.50
2015,08,11,13,36,26.50
2015,08,11,13,37,26.60
2015,08,11,13,38,26.70
2015,08,11,13,39,26.80
2015,08,11,13,40,26.90
2015,08,11,13,41,26.90
2015,08,11,13,42,26.90
2015,08,11,13,43,26.90
2015,08,11,13,44,27.00
2015,08,11,13,45,27.00
2015,08,11,13,46,27.00
2015,08,11,13,47,27.10
2015,08,11,13,48,27.00
2015,08,11,13,49,27.10
2015,08,11,13,50,27.10
2015,08,11,13,51,27.00
2015,08,11,13,52,27.00
2015,08,11,13,53,27.00
2015,08,11,13,54,27.10
2015,08,11,13,55,27.20
2015,08,11,13,56,27.20
2015,08,11,13,57,27.20
2015,08,11,13,58,27.30
2015,08,11,13,59,27.30
2015,08,11,14,00,27.30
2015,08,11,14,01,27.30
2015,08,11,14,02,27.30
2015,08,11,14,03,27.30
2015,08,11,14,04,27.30
2015,08,11,14,05,27.30
2015,08,11,14,06,27.30
2015,08,11,14,07,27.20
2015,08,11,14,08,27.10
2015,08,11,14,09,27.10
2015,08,11,14,10,27.20
2015,08,11,14,11,27.30
2015,08,11,14,12,27.40
2015,08,11,14,13,27.50
2015,08,11,14,14,27.60
2015,08,11,14,15,27.70
2015,08,11,14,16,27.70
2015,08,11,14,17,27.80
2015,08,11,14,18,27.80
2015,08,11,14,19,27.80
2015,08,11,14,20,27.90
2015,08,11,14,21,27.90
2015,08,11,14,22,27.80
2015,08,11,14,23,27.80
2015,08,11,14,24,27.80
2015,08,11,14,25,27.90
2015,08,11,14,26,27.90
2015,08,11,14,27,27.90
2015,08,11,14,28,27.90
2015,08,11,14,29,27.80
2015,08,11,14,30,27.80
2015,08,11,14,31,27.80
2015,08,11,14,32,27.80
2015,08,11,14,33,27.80
2015,08,11,14,34,27.80
2015,08,11,14,35,27.80
2015,08,11,14,36,27.80
2015,08,11,14,37,27.90
2015,08,11,14,38,27.80
2015,08,11,14,39,27.80
2015,08,11,14,40,27.80
2015,08,11,14,41,27.80
2015,08,11,14,42,27.80
2015,08,11,14,43,27.80
2015,08,11,14,44,27.80
2015,08,11,14,45,27.80
2015,08,11,14,46,27.80
2015,08,11,14,47,27.80
2015,08,11,14,48,27.80
2015,08,11,14,49,27.80
2015,08,11,14,50,27.80
2015,08,11,14,51,27.70
2015,08,11,14,52,27.60
2015,08,11,14,53,27.50
2015,08,11,14,54,27.50
2015,08,11,14,55,27.40
2015,08,11,14,56,27.30
2015,08,11,14,57,27.20
2015,08,11,14,58,27.10
2015,08,11,14,59,27.20
2015,08,11,15,00,27.20
2015,08,11,15,01,27.20
2015,08,11,15,02,27.20
2015,08,11,15,03,27.20
2015,08,11,15,04,27.20
2015,08,11,15,05,27.30
2015,08,11,15,06,27.30
2015,08,11,15,07,27.40
2015,08,11,15,08,27.50
2015,08,11,15,09,27.60
2015,08,11,15,10,27.60
2015,08,11,15,11,27.70
2015,08,11,15,12,27.70
2015,08,11,15,13,27.70
2015,08,11,15,14,27.60
2015,08,11,15,15,27.50
2015,08,11,15,16,27.40
2015,08,11,15,17,27.30
2015,08,11,15,18,27.20
2015,08,11,15,19,27.20
2015,08,11,15,20,27.10
2015,08,11,15,21,27.00
2015,08,11,15,22,26.90
2015,08,11,15,23,26.80
2015,08,11,15,24,26.60
2015,08,11,15,25,26.40
2015,08,11,15,26,26.20
2015,08,11,15,27,26.10
2015,08,11,15,28,26.00
2015,08,11,15,29,25.90
2015,08,11,15,30,25.80
2015,08,11,15,31,25.80
2015,08,11,15,32,25.80
2015,08,11,15,33,25.80
2015,08,11,15,34,25.80
2015,08,11,15,35,25.90
2015,08,11,15,36,26.00
2015,08,11,15,37,26.10
2015,08,11,15,38,26.20
2015,08,11,15,39,26.30
2015,08,11,15,40,26.40
2015,08,11,15,41,26.50
2015,08,11,15,42,26.60
2015,08,11,15,43,26.70
2015,08,11,15,44,26.70
2015,08,11,15,45,26.70
2015,08,11,15,46,26.70
2015,08,11,15,47,26.70
2015,08,11,15,48,26.70
2015,08,11,15,49,26.70
2015,08,11,15,50,26.70
2015,08,11,15,51,26.70
2015,08,11,15,52,26.70
2015,08,11,15,53,26.70
2015,08,11,15,54,26.60
2015,08,11,15,55,26.60
2015,08,11,15,56,26.50
2015,08,11,15,57,26.50
2015,08,11,15,58,26.40
2015,08,11,15,59,26.40
2015,08,11,16,00,26.40
2015,08,11,16,01,26.30
2015,08,11,16,02,26.10
2015,08,11,16,03,26.00
2015,08,11,16,04,25.80
2015,08,11,16,05,25.70
2015,08,11,16,06,25.60
2015,08,11,16,07,25.60
2015,08,11,16,08,25.50
2015,08,11,16,09,25.50
2015,08,11,16,10,25.40
2015,08,11,16,11,25.30
2015,08,11,16,12,25.20
2015,08,11,16,13,25.10
2015,08,11,16,14,25.00
2015,08,11,16,15,24.80
2015,08,11,16,16,24.70
2015,08,11,16,17,24.60
2015,08,11,16,18,24.60
2015,08,11,16,19,24.60
2015,08,11,16,20,24.60
2015,08,11,16,21,24.60
2015,08,11,16,22,24.60
2015,08,11,16,23,24.70
2015,08,11,16,24,24.60
2015,08,11,16,25,24.60
2015,08,11,16,26,24.60
2015,08,11,16,27,24.50
2015,08,11,16,28,24.40
2015,08,11,16,29,24.40
2015,08,11,16,30,24.40
2015,08,11,16,31,24.40
2015,08,11,16,32,24.40
2015,08,11,16,33,24.40
2015,08,11,16,34,24.40
2015,08,11,16,35,24.40
2015,08,11,16,36,24.40
2015,08,11,16,37,24.40
2015,08,11,16,38,24.50
2015,08,11,16,39,24.60
2015,08,11,16,40,24.60
2015,08,11,16,41,24.70
2015,08,11,16,42,24.90
2015,08,11,16,43,25.00
2015,08,11,16,44,25.10
2015,08,11,16,45,25.20
2015,08,11,16,46,25.30
2015,08,11,16,47,25.30
2015,08,11,16,48,25.30
2015,08,11,16,49,25.30
2015,08,11,16,50,25.30
2015,08,11,16,51,25.30
2015,08,11,16,52,25.30
2015,08,11,16,53,25.30
2015,08,11,16,54,25.30
2015,08,11,16,55,25.30
2015,08,11,16,56,25.40
2015,08,11,16,57,25.40
2015,08,11,16,58,25.40
2015,08,11,16,59,25.40
2015,08,11,17,00,25.40
2015,08,11,17,01,25.40
2015,08,11,17,02,25.50
2015,08,11,17,03,25.50
2015,08,11,17,04,25.50
2015,08,11,17,05,25.60
2015,08,11,17,06,25.60
2015,08,11,17,07,25.70
2015,08,11,17,08,25.70
2015,08,11,17,09,25.70
2015,08,11,17,10,25.70
2015,08,11,17,11,25.60
2015,08,11,17,12,25.60
2015,08,11,17,13,25.50
2015,08,11,17,14,25.50
2015,08,11,17,15,25.40
2015,08,11,17,16,25.40
2015,08,11,17,17,25.40
2015,08,11,17,18,25.30
2015,08,11,17,19,25.40